Regional Weather Roundup
Issued by NWS Albany, NY

Current Version | Previous Version | Text Only | Print | Product List | Glossary On
Versions: 1 2 3 4 5 6 7 8 9 10 11 12 13 14 15 16 17 18 19 20 21 22 23 24 25 26 27
000
ASUS41 KALY 222010
RWRALY

NEW YORK STATE HOURLY WEATHER ROUNDUP
NATIONAL WEATHER SERVICE ALBANY NY
400 PM EDT SUN MAY 22 2022

NOTE: "FAIR" INDICATES FEW OR NO CLOUDS BELOW 12,000 FEET WITH NO
SIGNIFICANT WEATHER AND/OR NO OBSTRUCTIONS TO VISIBILITY.

NYZ032-033-038>043-046>054-057>066-NYZ062>081-082-084-222100-
EAST


CITY           SKY/WX    TMP DP  RH WIND       PRES   REMARKS
ALBANY         PTSUNNY   88  65  46 S3        29.88F HX  90
GLENS FALLS    SUNNY     89  59  36 W10G20    29.86F
POUGHKEEPSIE   MOSUNNY   90  64  42 SW9       29.89F HX  91
NEWBURGH       MOSUNNY   88  64  45 W14       29.93F
MONTGOMERY     MOSUNNY   87  66  49 SW12      29.90F
WHITE PLAINS   MOSUNNY   89  61  38 S10       29.93F
ISLIP          MOSUNNY   80  66  62 SW13      29.96F
NEW YORK CITY  MOSUNNY   88  64  44 S16       29.93S
CENTRAL PARK   MOSUNNY   87  65  47 VRB5      29.95F
$$

NYZ005>009-017-018-044>046-055-056-222100-
CENTRAL


CITY           SKY/WX    TMP DP  RH WIND       PRES   REMARKS
FULTON         CLOUDY    59  56  89 NW9G20    30.04R
SYRACUSE       CLOUDY    63  60  90 W16       30.03R
ROME           TSTM      69  66  90 W15G22    30.01R FOG
ELMIRA         MOSUNNY   82  64  54 W10G20    29.95F
BINGHAMTON     TSTM      66  64  93 CALM      30.00R FOG
MONTICELLO     MOSUNNY   86  60  41 W10G17    29.97F
$$

NYZ026>034-041>043-087-222100-
NORTH


CITY           SKY/WX    TMP DP  RH WIND       PRES   REMARKS
WATERTOWN      CLOUDY    60  58  92 NW9       30.01R
FORT DRUM      NOT AVBL
OGDENSBURG     CLOUDY    55  54  94 NW8       29.99R
MASSENA        LGT RAIN  57  54  89 W9        30.00R
SARANAC LAKE   CLOUDY    67  65  93 W6        29.96R
PLATTSBURGH    SUNNY     84  60  44 SW10G17   29.84S
$$

NYZ001>004-010>016-019>021-085-222100-
WEST


CITY           SKY/WX    TMP DP  RH WIND       PRES   REMARKS
NIAGARA FALLS  CLOUDY    55  50  83 W8        30.13S
BUFFALO        CLOUDY    53  51  93 W7        30.13R
DUNKIRK        CLOUDY    54  52  93 SW9       30.15R
JAMESTOWN      CLOUDY    55  53  93 NW13      30.15R
WELLSVILLE     LGT RAIN  62  58  86 NW17G25   30.12R
ROCHESTER      CLOUDY    56  53  90 NW7       30.10R
PENN YAN       PTSUNNY   64  32  30 NW20G33   30.04R
$$

             KEY
       WCI = WIND CHILL INDEX
       VSB = VISIBILITY
       HX  = HEAT INDEX
$$



USA.gov is the U.S. government's official web portal to all federal, state and local government web resources and services.